Location: Peterborough
(44.3091°N, 78.3197°W)
Time: 03:00:45
(UTC-04:00)

Tiros 1 - Pass Details

Date: 11 April 2023
Orbit: 627 x 661 km, 48.4° (Epoch: 09 June)

Event Time Altitude Azimuth Distance (km) Brightness Sun altitude
Rises 03:01:00 0° 279° (W) 2,964 - -32.2°
Reaches altitude 10° 03:03:23 10° 284° (WNW) 2,059 - -32.0°
Maximum altitude 03:08:02 51° 1° (N) 825 - -31.5°
Exits shadow 03:09:40 35° 55° (NE) 1,060 8.6 -31.4°
Drops below altitude 10° 03:12:42 10° 78° (ENE) 2,074 10.3 -31.0°
Sets 03:15:07 0° 83° (E) 2,988 11.1 -30.8°
